Weather History for KOMH - September, 2013

Change the Weather History Date:

Tuesday, September 10, 2013

  Actual Average Record
Temperature  
Mean Temperature 84 °F -  
Max Temperature 96 °F 80 °F 96 °F (2013)
Min Temperature 71 °F 59 °F 43 °F (1956)
Cooling Degree Days 18    
Growing Degree Days 34 (Base 50)    
Moisture  
Dew Point 78 °F    
Average Humidity 87    
Maximum Humidity 100    
Minimum Humidity 60    
Precipitation  
Precipitation 0.00 in - - ()
Sea Level Pressure  
Sea Level Pressure 30.18 in    
Wind  
Wind Speed 2 mph (SSE)    
Max Wind Speed 8 mph    
Max Gust Speed -    
Visibility 9 miles    
Events      
Averages and records for this station are not official NWS values.
T = Trace of Precipitation, MM = Missing Value Source: NWS Daily Summary

Daily Weather History Graph

Daily Weather History Graph

Search for Another Location

Airport or City:

Trip Planner

Search our weather history database for the weather conditions in past years. The results will help you decide how hot, cold, wet, or windy it might be!

Date:

Astronomy

Sep. 10, 2013 Rise Set
Actual Time 6:49 AM EDT 7:27 PM EDT
Civil Twilight 6:23 AM EDT 7:54 PM EDT
Nautical Twilight 5:51 AM EDT 8:25 PM EDT
Astronomical Twilight 5:19 AM EDT 8:57 PM EDT
Moon 12:08 PM EDT (9/10) 10:34 PM EDT (9/10)
Length of Visible Light 13h 31m
Length of Day
12h 37m
Waxing Crescent, 28% of the Moon is Illuminated
Sep 10
Waxing Crescent
Sep 12
First Quarter
Sep 19
Full
Sep 26
Last Quarter
Oct 4
New

Hourly Weather History & Observations

Time (EDT) Temp. Heat Index Dew Point Humidity Pressure Visibility Wind Dir Wind Speed Gust Speed Precip Events Conditions
12:15 AM 71.6 °F - 71.6 °F 100% 30.18 in 10.0 mi Calm Calm - N/A   Overcast
12:35 AM 73.4 °F - 73.4 °F 100% 30.18 in 10.0 mi Calm Calm - N/A   Overcast
12:55 AM 73.4 °F - 73.4 °F 100% 30.18 in 10.0 mi SSW 3.5 mph - N/A   Overcast
1:15 AM 73.4 °F - 73.4 °F 100% 30.18 in 10.0 mi South 3.5 mph - N/A   Overcast
1:35 AM 73.4 °F - 73.4 °F 100% 30.18 in 10.0 mi Calm Calm - N/A   Overcast
1:55 AM 73.4 °F - 73.4 °F 100% 30.18 in 10.0 mi Calm Calm - N/A   Overcast
2:15 AM 73.4 °F - 73.4 °F 100% 30.18 in 10.0 mi Calm Calm - N/A   Overcast
2:35 AM 73.4 °F - 73.4 °F 100% 30.18 in 10.0 mi Calm Calm - N/A   Overcast
2:55 AM 73.4 °F - 73.4 °F 100% 30.18 in 10.0 mi SSE 3.5 mph - N/A   Overcast
3:15 AM 75.2 °F - 75.2 °F 100% 30.17 in 10.0 mi South 3.5 mph - N/A   Mostly Cloudy
3:35 AM 73.4 °F - 73.4 °F 100% 30.18 in 10.0 mi Calm Calm - N/A   Scattered Clouds
3:55 AM 73.4 °F - 73.4 °F 100% 30.17 in 10.0 mi South 4.6 mph - N/A   Scattered Clouds
4:15 AM 73.4 °F - 73.4 °F 100% 30.17 in 10.0 mi Calm Calm - N/A   Clear
4:35 AM 73.4 °F - 73.4 °F 100% 30.17 in 10.0 mi Calm Calm - N/A   Scattered Clouds
4:55 AM 73.4 °F - 73.4 °F 100% 30.17 in 7.0 mi South 4.6 mph - N/A   Scattered Clouds
5:15 AM 73.4 °F - 73.4 °F 100% 30.17 in 7.0 mi SSW 3.5 mph - N/A   Clear
5:35 AM 71.6 °F - 71.6 °F 100% 30.18 in 7.0 mi Calm Calm - N/A   Mostly Cloudy
5:55 AM 73.4 °F - 73.4 °F 100% 30.17 in 7.0 mi SSE 3.5 mph - N/A   Mostly Cloudy
6:15 AM 73.4 °F - 73.4 °F 100% 30.17 in 7.0 mi South 5.8 mph - N/A   Scattered Clouds
6:35 AM 73.4 °F - 73.4 °F 100% 30.19 in 7.0 mi Calm Calm - N/A   Clear
6:55 AM 73.4 °F - 73.4 °F 100% 30.19 in 7.0 mi Calm Calm - N/A   Clear
7:15 AM 73.4 °F - 73.4 °F 100% 30.20 in 5.0 mi Calm Calm - N/A   Scattered Clouds
7:35 AM 73.4 °F - 73.4 °F 100% 30.20 in 5.0 mi South 3.5 mph - N/A   Scattered Clouds
7:55 AM 73.4 °F - 73.4 °F 100% 30.21 in 7.0 mi Calm Calm - N/A   Mostly Cloudy
8:15 AM 73.4 °F - 73.4 °F 100% 30.21 in 7.0 mi South 3.5 mph - N/A   Overcast
8:35 AM 77.0 °F - 77.0 °F 100% 30.20 in 10.0 mi South 4.6 mph - N/A   Mostly Cloudy
8:55 AM 77.0 °F - 77.0 °F 100% 30.20 in 10.0 mi South 4.6 mph - N/A   Scattered Clouds
9:15 AM 78.8 °F - 78.8 °F 100% 30.20 in 10.0 mi South 5.8 mph - N/A   Clear
9:35 AM 82.4 °F 92.4 °F 78.8 °F 89% 30.21 in 10.0 mi South 4.6 mph - N/A   Scattered Clouds
9:55 AM 82.4 °F 92.4 °F 78.8 °F 89% 30.21 in 10.0 mi SSE 3.5 mph - N/A   Clear
10:15 AM 86.0 °F 101.9 °F 80.6 °F 84% 30.21 in 10.0 mi SSE 5.8 mph - N/A   Clear
10:35 AM 87.8 °F 104.9 °F 80.6 °F 79% 30.21 in 10.0 mi SSE 5.8 mph - N/A   Clear
10:55 AM 87.8 °F 104.9 °F 80.6 °F 79% 30.21 in 10.0 mi South 6.9 mph - N/A   Clear
11:15 AM 89.6 °F 108.2 °F 80.6 °F 75% 30.21 in 10.0 mi SSW 5.8 mph - N/A   Clear
11:35 AM 91.4 °F 111.0 °F 80.6 °F 71% 30.21 in 10.0 mi South 6.9 mph - N/A   Clear
11:55 AM 91.4 °F 111.0 °F 80.6 °F 71% 30.20 in 10.0 mi South 8.1 mph - N/A   Clear
12:15 PM 91.4 °F 111.0 °F 80.6 °F 71% 30.20 in 10.0 mi South 3.5 mph - N/A   Clear
12:35 PM 93.2 °F 113.6 °F 80.6 °F 67% 30.19 in 10.0 mi SE 6.9 mph - N/A   Clear
12:55 PM 93.2 °F 113.6 °F 80.6 °F 67% 30.19 in 10.0 mi SE 4.6 mph - N/A   Clear
1:15 PM 95.0 °F 115.8 °F 80.6 °F 63% 30.19 in 10.0 mi SSE 3.5 mph - N/A   Clear
1:35 PM 95.0 °F 115.8 °F 80.6 °F 63% 30.19 in 10.0 mi South 5.8 mph - N/A   Clear
1:55 PM 95.0 °F 115.8 °F 80.6 °F 63% 30.18 in 10.0 mi SSW 3.5 mph - N/A   Clear
2:15 PM 96.8 °F 118.6 °F 80.6 °F 60% 30.17 in 10.0 mi South 6.9 mph - N/A   Clear
2:35 PM 96.8 °F 118.6 °F 80.6 °F 60% 30.16 in 10.0 mi South 5.8 mph - N/A   Clear
2:55 PM 96.8 °F 118.6 °F 80.6 °F 60% 30.16 in 10.0 mi SSE 6.9 mph - N/A   Clear
3:15 PM 95.0 °F 115.8 °F 80.6 °F 63% 30.16 in 10.0 mi SSE 5.8 mph - N/A   Clear
3:35 PM 96.8 °F 118.6 °F 80.6 °F 60% 30.15 in 10.0 mi SE 6.9 mph - N/A   Clear
3:55 PM 96.8 °F 118.6 °F 80.6 °F 60% 30.14 in 10.0 mi SSE 6.9 mph - N/A   Clear
4:15 PM 95.0 °F 115.8 °F 80.6 °F 63% 30.14 in 10.0 mi SE 6.9 mph - N/A   Scattered Clouds
4:35 PM 95.0 °F 115.8 °F 80.6 °F 63% 30.14 in 10.0 mi South 4.6 mph - N/A   Clear
4:55 PM 95.0 °F 115.8 °F 80.6 °F 63% 30.14 in 10.0 mi SSE 5.8 mph - N/A   Clear
5:15 PM 95.0 °F 115.8 °F 80.6 °F 63% 30.14 in 10.0 mi SSE 4.6 mph - N/A   Clear
5:35 PM 95.0 °F 115.8 °F 80.6 °F 63% 30.14 in 10.0 mi SSE 5.8 mph - N/A   Clear
5:55 PM 95.0 °F 115.8 °F 80.6 °F 63% 30.14 in 10.0 mi SSE 4.6 mph - N/A   Clear
6:15 PM 93.2 °F 113.6 °F 80.6 °F 67% 30.14 in 10.0 mi SE 3.5 mph - N/A   Clear
6:35 PM 91.4 °F 111.0 °F 80.6 °F 71% 30.14 in 10.0 mi SSE 3.5 mph - N/A   Clear
6:55 PM 89.6 °F 108.2 °F 80.6 °F 75% 30.14 in 10.0 mi SSE 3.5 mph - N/A   Clear
7:15 PM 87.8 °F 108.2 °F 82.4 °F 84% 30.14 in 10.0 mi Calm Calm - N/A   Clear
7:35 PM 86.0 °F 104.7 °F 82.4 °F 89% 30.14 in 10.0 mi Calm Calm - N/A   Clear
7:55 PM 82.4 °F 96.1 °F 82.4 °F 100% 30.15 in 10.0 mi Calm Calm - N/A   Clear
8:15 PM 82.4 °F 96.1 °F 82.4 °F 100% 30.15 in 10.0 mi Calm Calm - N/A   Clear
8:35 PM 80.6 °F 89.3 °F 80.6 °F 100% 30.16 in 7.0 mi Calm Calm - N/A   Clear
8:55 PM 80.6 °F 89.3 °F 80.6 °F 100% 30.16 in 7.0 mi Calm Calm - N/A   Clear
9:15 PM 80.6 °F 89.3 °F 80.6 °F 100% 30.17 in 7.0 mi Calm Calm - N/A   Clear
9:35 PM 80.6 °F 89.3 °F 80.6 °F 100% 30.18 in 7.0 mi Calm Calm - N/A   Clear
9:55 PM 80.6 °F 89.3 °F 80.6 °F 100% 30.18 in - Calm Calm - N/A   Unknown
10:15 PM 80.6 °F 89.3 °F 80.6 °F 100% 30.19 in 10.0 mi Calm Calm - N/A   Clear
10:35 PM 80.6 °F 89.3 °F 80.6 °F 100% 30.18 in 7.0 mi Calm Calm - N/A   Clear
10:55 PM 78.8 °F - 78.8 °F 100% 30.18 in 3.0 mi Calm Calm - N/A   Clear
11:15 PM 78.8 °F - 78.8 °F 100% 30.19 in 5.0 mi Calm Calm - N/A   Clear
11:35 PM 80.6 °F 89.3 °F 80.6 °F 100% 30.19 in 10.0 mi Calm Calm - N/A   Clear
11:55 PM 78.8 °F - 78.8 °F 100% 30.18 in 5.0 mi Calm Calm - N/A   Clear